Location: Sweet Grass
(48.9965°N, 111.9649°W)
Time: 11:37:04
(UTC+00:00)

N. Korean satellite - Visible Passes

Search period start: 28 November 2022 00:00
Search period end: 08 December 2022 00:00
Orbit: 422 x 454 km, 97.3° (Epoch: 28 November)

Date Brightness Start Highest point End Pass type
(mag) Time Alt. Az. Time Alt. Az. Time Alt. Az.
28 Nov 9.6 00:49:00 10° SW 00:51:21 18° W 00:53:43 10° NW visible
28 Nov 9.1 12:04:17 10° NE 12:06:56 20° E 12:09:32 10° SE visible
28 Nov 7.2 13:36:28 10° N 13:39:30 30° WNW 13:42:30 10° SW visible
29 Nov 7.5 00:09:12 10° S 00:12:28 50° W 00:15:48 10° NNW visible
29 Nov 6.3 12:57:29 10° NNE 13:00:56 88° W 13:04:20 10° SSW visible
30 Nov 9.9 01:05:14 10° WSW 01:06:38 12° W 01:08:01 10° WNW visible
30 Nov 8.4 12:19:03 10° NNE 12:22:08 29° E 12:25:09 10° SSE visible
30 Nov 7.7 13:51:51 10° NNW 13:54:29 21° WNW 13:57:06 10° WSW visible
01 Dec 8.5 00:24:31 10° SSW 00:27:35 32° W 00:30:42 10° NNW visible
01 Dec 9.9 11:42:01 10° ENE 11:43:03 11° E 11:44:06 10° ESE visible
01 Dec 6.4 13:12:34 10° N 13:15:56 57° WNW 13:19:16 10° SSW visible
02 Dec 7.5 12:33:49 10° NNE 12:37:07 44° E 12:40:23 10° S visible
02 Dec 8.1 14:07:18 10° NNW 14:09:18 15° WNW 14:11:17 10° W visible
03 Dec 9.2 00:39:53 10° SSW 00:42:35 22° W 00:45:19 10° NW visible
03 Dec 9.4 11:55:52 10° NE 11:58:04 16° E 12:00:16 10° SE visible
03 Dec 6.9 13:27:33 10° N 13:30:45 37° WNW 13:33:54 10° SW visible
04 Dec 6.6 12:48:32 10° NNE 12:51:57 70° ESE 12:55:19 10° S visible
04 Dec 8.4 14:23:09 10° NW 14:23:56 11° WNW 14:24:41 10° WNW visible
05 Dec 9.7 00:55:21 10° SW 00:57:27 15° W 00:59:34 10° NW visible
05 Dec 8.8 12:10:06 10° NE 12:12:53 23° E 12:15:39 10° SSE visible
05 Dec 7.4 13:42:30 10° N 13:45:23 26° WNW 13:48:14 10° SW visible
06 Dec 7.9 00:15:03 10° S 00:18:17 42° W 00:21:34 10° NNW visible
06 Dec 6.2 13:03:10 10° N 13:06:36 76° WNW 13:09:56 10° SSW visible
07 Dec 10.1 01:11:24 10° WSW 01:12:11 11° W 01:12:59 10° WNW visible
07 Dec 8.1 12:24:25 10° NNE 12:27:32 33° E 12:30:37 10° SSE visible
07 Dec 7.8 13:57:25 10° NNW 13:59:49 18° WNW 14:02:13 10° WSW visible
